Stündliche Wetter Ceglow

Heute, 25 Januar, Montag

Zeit Temperatur Niederschläge Wind Luftdruck Luftfeuchtigkeit
00:00 -1°C° 0 mm 3 m/S 733 mmHg 89%
01:00 -2°C° 0 mm 3 m/S 733 mmHg 91%
02:00 -2°C° 0 mm 3 m/S 733 mmHg 91%
03:00 -2°C° 0 mm 2 m/S 733 mmHg 91%
04:00 -2°C° 0 mm 2 m/S 733 mmHg 91%
05:00 -2°C° 0 mm 2 m/S 733 mmHg 91%
06:00 0°C° 0 mm 1 m/S 733 mmHg 91%
07:00 0°C° 0 mm 1 m/S 733 mmHg 90%
08:00 0°C° 0 mm 1 m/S 733 mmHg 90%
09:00 0°C° 0 mm 1 m/S 733 mmHg 89%
10:00 +1°C° 0 mm 1 m/S 733 mmHg 89%
11:00 -1°C° 0.1 mm 2 m/S 733 mmHg 89%
12:00 -1°C° 0.1 mm 3 m/S 733 mmHg 90%
13:00 -2°C° 0.1 mm 4 m/S 732 mmHg 91%
14:00 -2°C° 0.6 mm 4 m/S 732 mmHg 93%
15:00 -2°C° 0.6 mm 4 m/S 733 mmHg 95%
16:00 -2°C° 0.6 mm 5 m/S 733 mmHg 97%
17:00 -2°C° 0.6 mm 5 m/S 733 mmHg 97%
18:00 -3°C° 0.6 mm 6 m/S 733 mmHg 97%
19:00 -3°C° 0.6 mm 6 m/S 733 mmHg 97%
20:00 -3°C° 0.3 mm 6 m/S 733 mmHg 95%
21:00 -3°C° 0.3 mm 7 m/S 733 mmHg 94%
22:00 -3°C° 0.3 mm 7 m/S 734 mmHg 93%
23:00 -3°C° 0.1 mm 7 m/S 734 mmHg 92%

Morgen, 26 Januar, Dienstag

Zeit Temperatur Niederschläge Wind Luftdruck Luftfeuchtigkeit
00:00 -3°C° 0.1 mm 7 m/S 734 mmHg 91%
01:00 -4°C° 0.1 mm 7 m/S 734 mmHg 90%
02:00 -4°C° 0 mm 7 m/S 735 mmHg 90%
03:00 -4°C° 0 mm 7 m/S 735 mmHg 90%
04:00 -4°C° 0 mm 7 m/S 735 mmHg 90%
05:00 -4°C° 0 mm 7 m/S 735 mmHg 90%
06:00 -4°C° 0 mm 7 m/S 735 mmHg 90%
07:00 -4°C° 0 mm 7 m/S 736 mmHg 90%
08:00 -5°C° 0 mm 8 m/S 736 mmHg 89%
09:00 -5°C° 0 mm 8 m/S 736 mmHg 88%
10:00 -4°C° 0 mm 8 m/S 736 mmHg 88%
11:00 -4°C° 0 mm 8 m/S 737 mmHg 87%
12:00 -4°C° 0 mm 8 m/S 737 mmHg 86%
13:00 -4°C° 0 mm 8 m/S 737 mmHg 85%
14:00 -4°C° 0 mm 8 m/S 737 mmHg 86%
15:00 -4°C° 0 mm 8 m/S 738 mmHg 87%
16:00 -5°C° 0 mm 8 m/S 738 mmHg 88%
17:00 -5°C° 0 mm 8 m/S 738 mmHg 88%
18:00 -4°C° 0 mm 7 m/S 739 mmHg 87%
19:00 -4°C° 0 mm 7 m/S 739 mmHg 86%
20:00 -4°C° 0 mm 7 m/S 739 mmHg 87%
21:00 -4°C° 0 mm 7 m/S 740 mmHg 88%
22:00 -4°C° 0 mm 6 m/S 740 mmHg 88%
23:00 -4°C° 0 mm 6 m/S 740 mmHg 89%

übermorgen, 27 Januar, Mittwoch

Zeit Temperatur Niederschläge Wind Luftdruck Luftfeuchtigkeit
00:00 -4°C° 0 mm 6 m/S 740 mmHg 89%
01:00 -4°C° 0 mm 6 m/S 740 mmHg 90%
02:00 -4°C° 0.1 mm 6 m/S 740 mmHg 90%
03:00 -4°C° 0.1 mm 6 m/S 740 mmHg 91%
04:00 -4°C° 0.1 mm 6 m/S 740 mmHg 92%
05:00 -4°C° 0.2 mm 6 m/S 741 mmHg 93%
06:00 -4°C° 0.2 mm 6 m/S 741 mmHg 93%
07:00 -4°C° 0.2 mm 6 m/S 741 mmHg 94%
08:00 -4°C° 0.1 mm 6 m/S 742 mmHg 91%
09:00 -3°C° 0.1 mm 6 m/S 742 mmHg 88%
10:00 -3°C° 0.1 mm 6 m/S 742 mmHg 85%
11:00 -2°C° 0 mm 5 m/S 742 mmHg 87%
12:00 -2°C° 0 mm 5 m/S 742 mmHg 89%
13:00 -1°C° 0 mm 5 m/S 742 mmHg 91%
14:00 -2°C° 0.1 mm 4 m/S 742 mmHg 91%
15:00 -2°C° 0.1 mm 4 m/S 742 mmHg 91%
16:00 -2°C° 0.1 mm 4 m/S 742 mmHg 91%
17:00 -2°C° 0.1 mm 4 m/S 742 mmHg 92%
18:00 -2°C° 0.1 mm 4 m/S 742 mmHg 93%
19:00 -3°C° 0.1 mm 4 m/S 742 mmHg 95%
20:00 -3°C° 0 mm 4 m/S 742 mmHg 94%
21:00 -4°C° 0 mm 3 m/S 742 mmHg 94%
22:00 -4°C° 0 mm 3 m/S 742 mmHg 94%
23:00 -4°C° 0 mm 3 m/S 742 mmHg 94%

28 Januar, Donnerstag

Zeit Temperatur Niederschläge Wind Luftdruck Luftfeuchtigkeit
00:00 -5°C° 0 mm 3 m/S 742 mmHg 95%
01:00 -5°C° 0 mm 3 m/S 742 mmHg 95%
02:00 -5°C° 0 mm 3 m/S 741 mmHg 96%
03:00 -5°C° 0 mm 3 m/S 741 mmHg 96%
04:00 -5°C° 0 mm 3 m/S 741 mmHg 97%
05:00 -5°C° 0.1 mm 3 m/S 741 mmHg 96%
06:00 -4°C° 0.1 mm 3 m/S 740 mmHg 96%
07:00 -4°C° 0.1 mm 3 m/S 740 mmHg 96%
08:00 -3°C° 0.1 mm 4 m/S 740 mmHg 94%
09:00 -3°C° 0.1 mm 4 m/S 740 mmHg 93%
10:00 -4°C° 0.1 mm 5 m/S 740 mmHg 92%
11:00 -2°C° 0.1 mm 4 m/S 740 mmHg 91%
12:00 -2°C° 0.1 mm 4 m/S 739 mmHg 91%
13:00 -2°C° 0.1 mm 4 m/S 739 mmHg 91%
14:00 -2°C° 0.1 mm 3 m/S 739 mmHg 90%
15:00 -2°C° 0.1 mm 3 m/S 739 mmHg 90%
16:00 -3°C° 0.1 mm 2 m/S 739 mmHg 90%
17:00 -3°C° 0 mm 2 m/S 739 mmHg 90%
18:00 -2°C° 0 mm 1 m/S 739 mmHg 91%
19:00 -2°C° 0 mm 1 m/S 739 mmHg 91%
20:00 -2°C° 0 mm 1 m/S 739 mmHg 91%
21:00 -2°C° 0 mm 1 m/S 739 mmHg 91%
22:00 -2°C° 0 mm 1 m/S 739 mmHg 92%
23:00 -4°C° 0 mm 2 m/S 739 mmHg 91%

29 Januar, Freitag

Zeit Temperatur Niederschläge Wind Luftdruck Luftfeuchtigkeit
00:00 -4°C° 0 mm 2 m/S 739 mmHg 91%
01:00 -4°C° 0 mm 2 m/S 738 mmHg 90%
02:00 -5°C° 0 mm 3 m/S 738 mmHg 91%
03:00 -5°C° 0 mm 3 m/S 737 mmHg 92%
04:00 -4°C° 0 mm 4 m/S 736 mmHg 93%
05:00 -4°C° 0.1 mm 4 m/S 736 mmHg 93%
06:00 -5°C° 0.1 mm 5 m/S 735 mmHg 94%
07:00 -5°C° 0.1 mm 6 m/S 735 mmHg 95%
08:00 -4°C° 0.2 mm 5 m/S 734 mmHg 95%
09:00 -2°C° 0.2 mm 5 m/S 733 mmHg 95%
10:00 -2°C° 0.2 mm 5 m/S 733 mmHg 96%
11:00 -1°C° 0 mm 5 m/S 732 mmHg 96%
12:00 0°C° 0 mm 5 m/S 731 mmHg 95%
13:00 +1°C° 0 mm 5 m/S 730 mmHg 95%
14:00 +1°C° 0.4 mm 5 m/S 729 mmHg 96%
15:00 +1°C° 0.4 mm 6 m/S 728 mmHg 96%
16:00 +1°C° 0.4 mm 6 m/S 728 mmHg 97%
17:00 0°C° 0.7 mm 7 m/S 727 mmHg 96%
18:00 +2°C° 0.7 mm 7 m/S 727 mmHg 95%
19:00 +2°C° 0.7 mm 7 m/S 727 mmHg 94%
20:00 +2°C° 0.3 mm 7 m/S 727 mmHg 93%
21:00 +2°C° 0.3 mm 7 m/S 727 mmHg 92%
22:00 +2°C° 0.3 mm 7 m/S 726 mmHg 91%
23:00 +2°C° 0 mm 7 m/S 726 mmHg 91%

30 Januar, Samstag

Zeit Temperatur Niederschläge Wind Luftdruck Luftfeuchtigkeit
00:00 +2°C° 0 mm 7 m/S 726 mmHg 91%
01:00 +2°C° 0 mm 7 m/S 726 mmHg 90%
02:00 +1°C° 0.3 mm 8 m/S 726 mmHg 91%
03:00 +1°C° 0.3 mm 8 m/S 726 mmHg 92%
04:00 +1°C° 0.3 mm 8 m/S 726 mmHg 93%
05:00 0°C° 0.1 mm 8 m/S 727 mmHg 92%
06:00 -1°C° 0.1 mm 8 m/S 728 mmHg 90%
07:00 -2°C° 0.1 mm 8 m/S 729 mmHg 89%
08:00 -4°C° 0 mm 8 m/S 730 mmHg 86%
09:00 -4°C° 0 mm 8 m/S 731 mmHg 83%
10:00 -3°C° 0 mm 7 m/S 732 mmHg 80%
11:00 -3°C° 0.1 mm 7 m/S 732 mmHg 77%
12:00 -3°C° 0.1 mm 7 m/S 733 mmHg 73%
13:00 -3°C° 0.1 mm 7 m/S 733 mmHg 70%
14:00 -3°C° 0 mm 7 m/S 734 mmHg 69%
15:00 -4°C° 0 mm 6 m/S 734 mmHg 67%
16:00 -4°C° 0 mm 6 m/S 735 mmHg 65%
17:00 -4°C° 0 mm 6 m/S 735 mmHg 70%
18:00 -6°C° 0 mm 7 m/S 735 mmHg 75%
19:00 -6°C° 0 mm 7 m/S 736 mmHg 79%
20:00 -5°C° 0 mm 6 m/S 736 mmHg 77%
21:00 -5°C° 0 mm 6 m/S 736 mmHg 75%
22:00 -5°C° 0 mm 6 m/S 737 mmHg 73%
23:00 -5°C° 0.1 mm 6 m/S 737 mmHg 77%
Mehr zeigen

Wir brauchen deine Erlaubnis

Meteoprog und unser Service Anbieter werden persönliche Daten aufbewahren, so wie Cookies, Geräte Bezeichnung oder ähnliche Technologien von deinem Gerät und Prozess, so wie Persönliche Daten Inhalte und Werbungen, genauso wie social Media und den Verkehr zu analysieren.

  • Aufbewahrung und/oder Zugang zu deiner Geräte Informationen.

    Cookies, Geräte Bezeichnung oder andere Informationen, können aufbewahrt oder Zugang zu deinem Gerät erhalten, für den Grund, der oben angegeben wird.

  • Personalisierte Werbung und Inhalte, Messungen, Einblick in das Publikum und Produkt Entwicklung.

    Werbungen und Inhalte können personalisiert werden, basierend auf ein Profil. Mehr Daten können besser personalisierte Werbungen und Inhalte hinzufügen. Werbung und Inhalte können gezeigt und gemessen werden. Einblicke über das Publikum, welche die Werbung gesehen haben und den Inhalt, können abgeleitet werden. So wie Daten können genutzt werden, um es zu verbessern oder die Benutzer Erfahrung zu verbessern das System und die Software.

Wenn du “Ich stimme zu” klickst, erlaubst du uns, die Cookies zu benutzen die Geräte Bezeichnung, den Web oder ähnliche Technologien zu benutzen. Deine Settings, können in deinem Gerät bei deinem Browser geändert werden.

Für den bestimmten Zweck, berechtigten Interessen beruhen darauf, mehr als auf den Inhalt. Du kannst mehr darüber in unseren Privaten und Cookie Politik lesen.